TimeMDT,TemperatureF,Dew PointF,Humidity,Sea Level PressureIn,VisibilityMPH,Wind Direction,Wind SpeedMPH,Gust SpeedMPH,PrecipitationIn,Events,Conditions,WindDirDegrees,DateUTC
12:16 AM,31.5,18.5,59,29.92,10.0,South,4.6,-,N/A,,Clear,180,2013-03-19 06:16:00
12:36 AM,31.5,18.5,59,29.92,10.0,SSW,3.5,-,N/A,,Clear,210,2013-03-19 06:36:00
12:56 AM,30.0,19.0,64,29.92,10.0,NW,3.5,-,N/A,,Clear,310,2013-03-19 06:56:00
1:16 AM,32.2,16.9,53,29.92,10.0,WNW,4.6,-,N/A,,Clear,300,2013-03-19 07:16:00
1:36 AM,36.5,13.3,39,29.93,10.0,West,5.8,-,N/A,,Clear,270,2013-03-19 07:36:00
1:56 AM,38.8,10.8,32,29.93,10.0,West,5.8,-,N/A,,Clear,270,2013-03-19 07:56:00
2:16 AM,39.7,9.5,29,29.93,10.0,WSW,9.2,-,N/A,,Clear,250,2013-03-19 08:16:00
2:36 AM,39.4,9.1,29,29.93,10.0,West,6.9,-,N/A,,Clear,260,2013-03-19 08:36:00
2:56 AM,39.0,8.2,28,29.93,10.0,WNW,12.7,20.7,N/A,,Clear,290,2013-03-19 08:56:00
3:16 AM,41.2,5.5,23,29.94,10.0,WNW,20.7,27.6,N/A,,Clear,290,2013-03-19 09:16:00
3:36 AM,42.1,4.3,21,29.93,10.0,WNW,17.3,27.6,N/A,,Clear,290,2013-03-19 09:36:00
3:56 AM,42.3,3.2,20,29.94,10.0,WNW,13.8,32.2,N/A,,Clear,290,2013-03-19 09:56:00
4:16 AM,41.2,3.6,21,29.94,10.0,WNW,18.4,31.1,N/A,,Clear,300,2013-03-19 10:16:00
4:36 AM,42.1,2.7,19,29.94,10.0,WNW,20.7,33.4,N/A,,Clear,300,2013-03-19 10:36:00
4:56 AM,41.4,2.3,20,29.95,10.0,WNW,20.7,31.1,N/A,,Clear,300,2013-03-19 10:56:00
5:16 AM,41.9,0.7,18,29.96,10.0,WNW,21.9,28.8,N/A,,Clear,300,2013-03-19 11:16:00
5:36 AM,41.4,-0.0,18,29.97,10.0,WNW,18.4,28.8,N/A,,Clear,300,2013-03-19 11:36:00
5:56 AM,38.8,0.9,20,29.99,10.0,WNW,12.7,18.4,N/A,,Clear,300,2013-03-19 11:56:00
6:16 AM,34.9,3.7,27,30.00,10.0,NNW,6.9,-,N/A,,Clear,340,2013-03-19 12:16:00
6:36 AM,36.5,0.5,22,30.01,10.0,NW,13.8,18.4,N/A,,Clear,320,2013-03-19 12:36:00
6:56 AM,36.0,2.8,25,30.02,10.0,North,10.4,-,N/A,,Clear,350,2013-03-19 12:56:00
7:16 AM,35.8,3.0,25,30.04,10.0,NNW,16.1,20.7,N/A,,Clear,340,2013-03-19 13:16:00
7:36 AM,38.1,-0.6,20,30.05,10.0,NNW,17.3,23.0,N/A,,Clear,330,2013-03-19 13:36:00
7:56 AM,39.4,-2.4,17,30.06,10.0,NNW,18.4,25.3,N/A,,Clear,340,2013-03-19 13:56:00
8:16 AM,40.6,-1.5,17,30.06,10.0,NNW,10.4,-,N/A,,Clear,340,2013-03-19 14:16:00
8:36 AM,41.7,-3.6,15,30.07,10.0,NNE,13.8,21.9,N/A,,Clear,20,2013-03-19 14:36:00
8:56 AM,39.2,3.6,23,30.09,10.0,North,12.7,16.1,N/A,,Clear,10,2013-03-19 14:56:00
9:16 AM,38.3,5.5,26,30.09,10.0,NE,15.0,19.6,N/A,,Clear,40,2013-03-19 15:16:00
9:36 AM,37.6,9.1,31,30.11,10.0,NE,10.4,-,N/A,,Clear,50,2013-03-19 15:36:00
9:56 AM,37.8,11.3,34,30.11,10.0,East,9.2,-,N/A,,Clear,80,2013-03-19 15:56:00
10:16 AM,38.8,11.1,32,30.11,10.0,East,10.4,-,N/A,,Clear,80,2013-03-19 16:16:00
10:36 AM,39.4,11.5,32,30.11,10.0,East,12.7,-,N/A,,Clear,90,2013-03-19 16:36:00
10:56 AM,40.6,10.9,30,30.11,10.0,East,6.9,-,N/A,,Clear,90,2013-03-19 16:56:00
11:16 AM,41.2,11.8,30,30.11,10.0,East,10.4,-,N/A,,Clear,80,2013-03-19 17:16:00
11:36 AM,43.5,10.8,26,30.11,10.0,East,11.5,-,N/A,,Clear,90,2013-03-19 17:36:00
12:16 PM,45.9,9.1,22,30.09,10.0,ESE,10.4,-,N/A,,Clear,120,2013-03-19 18:16:00
12:36 PM,47.1,7.2,20,30.09,10.0,SE,9.2,-,N/A,,Clear,130,2013-03-19 18:36:00
12:56 PM,48.7,8.2,19,30.09,10.0,SE,13.8,-,N/A,,Clear,130,2013-03-19 18:56:00
1:16 PM,48.9,5.0,17,30.08,10.0,SSE,11.5,17.3,N/A,,Clear,150,2013-03-19 19:16:00
1:36 PM,49.6,4.3,16,30.08,10.0,SE,11.5,17.3,N/A,,Clear,130,2013-03-19 19:36:00
1:56 PM,51.1,2.3,14,30.07,10.0,SSE,6.9,-,N/A,,Clear,160,2013-03-19 19:56:00
2:16 PM,51.3,-2.7,11,30.07,10.0,WNW,4.6,-,N/A,,Clear,300,2013-03-19 20:16:00
2:36 PM,53.1,-3.6,10,30.06,10.0,North,5.8,-,N/A,,Clear,350,2013-03-19 20:36:00
2:56 PM,53.2,-4.4,9,30.06,10.0,NNW,3.5,10.4,N/A,,Clear,340,2013-03-19 20:56:00
3:16 PM,55.2,-7.1,8,30.06,10.0,SSW,3.5,18.4,N/A,,Clear,200,2013-03-19 21:16:00
3:36 PM,53.8,-0.4,11,30.06,10.0,ESE,10.4,16.1,N/A,,Clear,120,2013-03-19 21:36:00
3:56 PM,54.5,0.1,11,30.06,10.0,East,12.7,-,N/A,,Clear,90,2013-03-19 21:56:00
4:16 PM,54.5,-0.4,11,30.07,10.0,East,11.5,-,N/A,,Clear,100,2013-03-19 22:16:00
4:36 PM,54.7,-2.4,10,30.07,10.0,ESE,6.9,-,N/A,,Clear,110,2013-03-19 22:36:00
4:56 PM,54.1,-1.8,10,30.08,10.0,East,11.5,-,N/A,,Clear,100,2013-03-19 22:56:00
5:16 PM,53.2,-3.1,10,30.08,10.0,East,11.5,-,N/A,,Clear,90,2013-03-19 23:16:00
5:36 PM,53.6,-2.0,10,30.10,10.0,ESE,6.9,10.4,N/A,,Clear,120,2013-03-19 23:36:00
5:56 PM,52.7,-4.4,9,30.10,10.0,East,9.2,-,N/A,,Clear,100,2013-03-19 23:56:00
6:16 PM,52.3,-4.7,9,30.11,10.0,East,4.6,-,N/A,,Clear,90,2013-03-20 00:16:00
6:36 PM,50.9,-4.9,10,30.12,10.0,East,6.9,-,N/A,,Clear,100,2013-03-20 00:36:00
6:56 PM,47.7,-3.1,12,30.13,10.0,ESE,6.9,-,N/A,,Clear,110,2013-03-20 00:56:00
7:36 PM,42.8,0.9,17,30.16,10.0,SSW,8.1,-,N/A,,Clear,200,2013-03-20 01:36:00
7:56 PM,47.8,-8.3,9,30.17,10.0,ESE,6.9,16.1,N/A,,Clear,110,2013-03-20 01:56:00
8:16 PM,43.2,-3.5,14,30.21,10.0,East,6.9,-,N/A,,Clear,80,2013-03-20 02:16:00
8:36 PM,39.7,5.9,25,30.23,10.0,ENE,10.4,-,N/A,,Clear,60,2013-03-20 02:36:00
8:56 PM,36.1,10.4,35,30.25,10.0,ENE,10.4,19.6,N/A,,Clear,70,2013-03-20 02:56:00
9:16 PM,34.2,12.6,41,30.28,10.0,ENE,3.5,-,N/A,,Clear,60,2013-03-20 03:16:00
9:36 PM,33.1,15.4,48,30.32,10.0,NE,4.6,-,N/A,,Clear,40,2013-03-20 03:36:00
9:56 PM,32.0,16.0,52,30.33,10.0,North,3.5,-,N/A,,Clear,350,2013-03-20 03:56:00
10:16 PM,30.6,16.5,56,30.34,10.0,Calm,Calm,-,N/A,,Clear,0,2013-03-20 04:16:00
10:36 PM,28.2,16.9,63,30.35,10.0,NNW,6.9,-,N/A,,Clear,340,2013-03-20 04:36:00
10:56 PM,26.1,17.4,70,30.35,10.0,North,3.5,-,N/A,,Clear,350,2013-03-20 04:56:00
11:16 PM,25.5,17.8,72,30.35,10.0,Calm,Calm,-,N/A,,Clear,0,2013-03-20 05:16:00
11:36 PM,26.6,18.1,70,30.35,10.0,Calm,Calm,-,N/A,,Clear,0,2013-03-20 05:36:00
11:56 PM,27.0,18.0,69,30.34,10.0,Calm,Calm,-,N/A,,Clear,0,2013-03-20 05:56:00